User: anonymous   Login
Location: Unspecified
(0.0000°N, 0.0000°E)
Time: 17:02:11
(UTC+00:00)
Language:

GONETS M 09 (M19) - Orbit

View from above orbital plane
View from above orbital plane
View from above satellite
View from above satellite

Ground track
Ground track

The orbit data is extracted from the following two-line orbital elements,

1 40062U 14036B   19016.69740432 -.00000008  00000-0 -13114-3 0  9991
2 40062  82.5086 189.8151 0021544 301.9867  57.9111 12.42894982205983
Epoch (UTC): 16 January 2019 16:44:15
Eccentricity: 0.0021544
inclination: 82.5086°
perigee height: 1477 km
apogee height: 1511 km
right ascension of ascending node: 189.8151°
argument of perigee: 301.9867°
revolutions per day: 12.42894982
mean anomaly at epoch: 57.9111°
orbit number at epoch: 20598

The dashed part of the orbit path shows where the satellite is in the earth's shadow,  

DLR